星链-32724 (STARLINK-32724)

导读 | 豆包AI

STARLINK-32724是美国SpaceX公司星链星座第二代卫星,于2024年12月29日由猎鹰9号火箭发射入轨。作为第二代星链主力卫星,它配备增强型相控阵天线与全标配激光星间链路,单星容量超100 Gbps,可支持用户终端获得千兆级下行速度。运行于近地轨道,具备自主轨道机动与主动避碰能力,退役后会在大气层完全烧毁,旨在为全球提供低延迟高速卫星互联网服务,助力星链第二代星座组网部署,进一步拓展全球覆盖范围与服务能力。

基本信息
目录编号:
62441
目录名称:
STARLINK-32724
国际标识:
2024-251K
轨道中心:
EARTH
卫星名称:
星链-32724
卫星全名:
星链-32724 (STARLINK-32724)
卫星状态:
在轨 (已飞行486 天)
发射日期:
2024-12-29 UTC
国别 :
美国 (US)
星等 :
--
轨道信息
数据来源 国际轨道数据
星历时间: 2026-04-29T15:59:41+0800
15小时前
查看轨道信息
半长轴: 6853.358km
偏心率: 0.000136
轨道倾角: 53.159°
近地点辐角 89.808°
升交点赤经 99.964°
平近点角 270.308°
近地点: 474.288km
远地点: 476.154km
周期: 94.105分钟
每日圈数: 15.301983
详细信息
固有亮度:
5
最大亮度:
2.5
卫星平台:
Starlink V1.0
覆盖范围:
全球
运营商:
太空探索技术公司
运营商所在国:
美国
制造商(研发单位):
太空探索技术公司
制造商所在国:
美国
使用方式:
暂无
卫星简介
Starlink 计划是 SpaceX 推出的全球卫星互联网项目,通过发射低轨道卫星,为全球尤其是偏远地区提供高速、低延迟的互联网服务。自 2019 年起,Starlink 已部署数千颗卫星,旨在缩小全球数字鸿沟,推动互联网普及。该项目还为军事、航空等行业提供通信支持,带来广泛经济效益。
2D轨道图
3D轨道图
轨道高度分析图
轨道倾角分析图
轨道综合分析图
查看轨道综合分析图